(1685) Toro
ephemeris date magn radius delta ra dec elong phase
Today28 Jul 202617.91.824 AU1.534 AU13h58m-17°27'89.0°33.8°
(1685) Toro - 2026-07-28
astro.vanbuitenen.nl


 
-1 year
-1 month
-1 day
Now
+1 day
+1 month
+1 year

The interactive orbit chart above shows the body's path through the solar system and its position at the given date. Green and blue lines are shown perpendicular to the ecliptic plane: Green if the path is above the ecliptic plane, blue if it is below. (Left-click and drag to rotate the view; Right-click and drag to move the view; Use scroll wheel to zoom in our out.)

The orbital elements of Toro are:

            e (Eccentricity)                : 0.4359922
            a (Semimajor axis)              : 1.3678594
            i (Inclination)                 : 9.38177
            Ω (Longitude of ascending node) : 274.20784
            ω (Argument of perihelion)      : 127.27004
            M (Mean anomaly)                : 205.91450
            Epoch                           : 2026 Jun 09

            L (Longitude of perihelion)     : 221.85036
            B (Latitude of perihelion)      : 7.45361
            P (Orbital period in years)     : 1.60            
        

The light curve chart below shows the estimated development of the minor planet's magnitude.


The all-sky chart below shows the path of the minor planet over the same period as the light curve. The current position is marked yellow.





The following chart shows the path of the minor planet in the next few days. The field of view is optimized for (~10x50) binoculars and finderscopes.




Ephemerides:
Date       Time       RA (2000)    DEC (2000)    delta   radius  elong  phase   PA    magn
2026-07-28 00:00 UT   13 58 14.2   -17 27 39     1.534    1.824   89.0   33.8   110   17.9 
2026-07-28 12:19 UT   13 58 49.7   -17 27 46     1.538    1.823   88.6   33.8   110   17.9 
2026-07-29 00:00 UT   13 59 23.6   -17 27 56     1.542    1.821   88.3   33.9   110   17.9 
2026-07-30 00:00 UT   14 00 34.3   -17 28 22     1.551    1.818   87.6   33.9   110   17.9 
2026-07-31 00:00 UT   14 01 46.2   -17 28 57     1.560    1.815   86.9   33.9   110   17.9 
2026-08-01 00:00 UT   14 02 59.4   -17 29 41     1.569    1.812   86.3   34.0   110   17.9 
2026-08-02 00:00 UT   14 04 13.8   -17 30 33     1.577    1.809   85.6   34.0   110   18.0 
2026-08-03 00:00 UT   14 05 29.4   -17 31 34     1.586    1.805   84.9   34.0   110   18.0 
2026-08-04 00:00 UT   14 06 46.2   -17 32 42     1.594    1.802   84.3   34.1   110   18.0 
2026-08-05 00:00 UT   14 08 04.2   -17 33 59     1.602    1.799   83.6   34.1   110   18.0 
2026-08-06 00:00 UT   14 09 23.3   -17 35 23     1.611    1.795   83.0   34.1   110   18.0 
2026-08-07 00:00 UT   14 10 43.6   -17 36 55     1.619    1.792   82.3   34.1   110   18.0 
2026-08-08 00:00 UT   14 12 05.1   -17 38 34     1.627    1.788   81.7   34.1   110   18.0 
2026-08-09 00:00 UT   14 13 27.8   -17 40 20     1.636    1.785   81.0   34.1   110   18.0 
2026-08-10 00:00 UT   14 14 51.5   -17 42 12     1.644    1.781   80.4   34.1   110   18.0 
2026-08-11 00:00 UT   14 16 16.4   -17 44 12     1.652    1.778   79.8   34.1   110   18.0 
2026-08-12 00:00 UT   14 17 42.4   -17 46 18     1.660    1.774   79.1   34.1   110   18.0 
2026-08-13 00:00 UT   14 19 09.5   -17 48 30     1.668    1.771   78.5   34.1   110   18.0 
2026-08-14 00:00 UT   14 20 37.7   -17 50 48     1.675    1.767   77.9   34.1   110   18.0 
2026-08-15 00:00 UT   14 22 07.0   -17 53 12     1.683    1.763   77.3   34.1   110   18.0 
2026-08-16 00:00 UT   14 23 37.4   -17 55 41     1.691    1.759   76.7   34.1   110   18.0 
2026-08-17 00:00 UT   14 25 08.8   -17 58 16     1.698    1.756   76.1   34.0   110   18.0 
2026-08-18 00:00 UT   14 26 41.3   -18 00 56     1.706    1.752   75.5   34.0   109   18.1 
2026-08-19 00:00 UT   14 28 14.8   -18 03 41     1.713    1.748   74.9   34.0   109   18.1 
2026-08-20 00:00 UT   14 29 49.3   -18 06 31     1.721    1.744   74.3   34.0   109   18.1 
2026-08-21 00:00 UT   14 31 24.9   -18 09 25     1.728    1.740   73.7   33.9   109   18.1 
2026-08-22 00:00 UT   14 33 01.4   -18 12 23     1.735    1.736   73.1   33.9   109   18.1 


    Terminology:
            
    delta:  distance between minor planet and earth in AU
    radius: distance between minor planet and sun in AU
    magn:   magnitude (brightness) estimate    
    ra:     right ascension in hours (24h = 360deg)
    dec:    declination in degrees
    elong:  elongation in degrees (angle sun-earth-minor planet)    
    phase:  phase angle in degrees (angle sun-minor planet-earth)        
    AU:     Astronomical Unit (mean distance between earth and sun: 149597870.7 km
    

Orbital elements provided by the MPC (Minor Planet Center).
Calculations by a modified version of AAPlus, a C# implementation of the AA+ project by PJ Naughter from the algorithms presented in the book "Astronomical Algorithms" by Jean Meeus.
NGC2000 dso catalog and star labels from VizieR as provided by the Strasbourg astronomical Data Center.
Tycho2 catalog from the ESO archive.